76.2580;-167.1580;1; 379.327; 201.044;1959.06.03 12:00:00;  -3.5;1010.2;   4.0; 225.0;    .000;    .000;   0.000; 90;
76.3051;-167.0792;2; 378.780; 200.959;1959.06.03 18:00:00;  -1.7;1010.1;   5.0; 202.0;   5.633;    .250;   0.939; 22;
76.3522;-166.9998;2; 378.232; 200.875;1959.06.04 00:00:00;  -1.2;1010.8;   4.0; 202.0;  11.267;    .500;   0.939; 22;
76.3992;-166.9199;2; 377.684; 200.790;1959.06.04 06:00:00;  -2.6;1010.8;   4.0; 158.0;  16.901;    .750;   0.939; 22;
76.4462;-166.8395;2; 377.136; 200.706;1959.06.04 12:00:00;  -4.9;1011.1;   6.0; 180.0;  22.535;   1.000;   0.939; 22;
76.4932;-166.7585;2; 376.589; 200.621;1959.06.04 18:00:00;  -4.8;1011.0;   4.0; 135.0;  28.169;   1.250;   0.939; 22;
76.5402;-166.6769;2; 376.041; 200.537;1959.06.05 00:00:00;  -3.1;1010.5;   7.0; 135.0;  33.802;   1.500;   0.939; 22;
76.5871;-166.5947;2; 375.494; 200.452;1959.06.05 06:00:00;  -3.8;1009.4;   6.0; 112.0;  39.437;   1.750;   0.939; 22;
76.6340;-166.5120;2; 374.946; 200.368;1959.06.05 12:00:00;  -4.4;1009.6;   5.0; 135.0;  45.071;   2.000;   0.939; 22;
76.6519;-166.4849;2; 374.740; 200.347;1959.06.05 18:00:00;  -4.6;1009.7;   5.0; 135.0;  47.178;   2.250;   0.351; 19;
76.6698;-166.4577;2; 374.534; 200.326;1959.06.06 00:00:00;  -3.9;1010.8;   4.0; 135.0;  49.285;   2.500;   0.351; 19;
76.6877;-166.4304;2; 374.328; 200.305;1959.06.06 06:00:00;  -2.7;1011.2;   0.0;   0.0;  51.393;   2.750;   0.351; 19;
76.7055;-166.4031;2; 374.122; 200.284;1959.06.06 12:00:00;  -3.8;1012.0;   0.0;   0.0;  53.499;   3.000;   0.351; 19;
76.7234;-166.3757;2; 373.916; 200.263;1959.06.06 18:00:00;  -3.5;1011.6;   0.0;   0.0;  55.606;   3.250;   0.351; 19;
76.7413;-166.3482;2; 373.710; 200.242;1959.06.07 00:00:00;  -2.5;1012.0;   4.0; 202.0;  57.714;   3.500;   0.351; 19;
76.7591;-166.3206;2; 373.504; 200.221;1959.06.07 06:00:00;  -1.7;1012.2;   4.0; 225.0;  59.822;   3.750;   0.351; 19;
76.7770;-166.2930;2; 373.298; 200.200;1959.06.07 12:00:00;  -2.6;1013.1;   4.0; 202.0;  61.928;   4.000;   0.351; 20;
76.7909;-166.2776;2; 373.141; 200.199;1959.06.07 18:00:00;  -1.4;1012.7;   5.0; 202.0;  63.520;   4.250;   0.265; 14;
76.8048;-166.2622;2; 372.985; 200.198;1959.06.08 00:00:00;  -3.0;1012.4;   8.0; 180.0;  65.113;   4.500;   0.265; 14;
76.8186;-166.2467;2; 372.828; 200.196;1959.06.08 06:00:00;  -3.0;1011.2;   7.0; 180.0;  66.704;   4.750;   0.265; 14;
76.8325;-166.2313;2; 372.672; 200.195;1959.06.08 12:00:00;  -3.2;1009.9;   6.0; 180.0;  68.297;   5.000;   0.266; 14;
76.8464;-166.2157;2; 372.515; 200.194;1959.06.08 18:00:00;  -3.4;1008.7;   8.0; 202.0;  69.888;   5.250;   0.265; 14;
76.8603;-166.2002;2; 372.359; 200.192;1959.06.09 00:00:00;  -3.1;1007.7;   8.0; 202.0;  71.481;   5.500;   0.265; 14;
76.8741;-166.1846;2; 372.202; 200.191;1959.06.09 06:00:00;  -2.4;1005.9;   9.0; 202.0;  73.073;   5.750;   0.265; 14;
76.8880;-166.1690;2; 372.046; 200.189;1959.06.09 12:00:00;  -2.4;1003.5;  10.0; 202.0;  74.664;   6.000;   0.265; 14;
76.9001;-166.1327;2; 371.896; 200.134;1959.06.09 18:00:00;  -2.6;1000.0;   9.0; 180.0;  76.295;   6.250;   0.272; 34;
76.9123;-166.0964;2; 371.745; 200.078;1959.06.10 00:00:00;  -1.4; 994.3;  10.0; 202.0;  77.925;   6.500;   0.272; 34;
76.9244;-166.0600;2; 371.595; 200.023;1959.06.10 06:00:00;   0.2; 990.8;   8.0; 202.0;  79.556;   6.750;   0.272; 34;
76.9365;-166.0235;2; 371.445; 199.967;1959.06.10 12:00:00;  -1.1; 992.9;  14.0; 248.0;  81.187;   7.000;   0.272; 34;
76.9487;-165.9870;2; 371.294; 199.912;1959.06.10 18:00:00;  -1.3; 992.7;  12.0; 248.0;  82.818;   7.250;   0.272; 34;
76.9608;-165.9504;2; 371.144; 199.856;1959.06.11 00:00:00;  -1.5; 995.9;  10.0; 292.0;  84.448;   7.500;   0.272; 34;
76.9729;-165.9137;2; 370.994; 199.801;1959.06.11 06:00:00;  -1.4;1001.6;   9.0; 292.0;  86.080;   7.750;   0.272; 34;
76.9850;-165.8770;2; 370.843; 199.746;1959.06.11 12:00:00;  -1.4;1005.7;   7.0; 292.0;  87.710;   8.000;   0.272; 34;
76.9841;-165.7956;2; 370.804; 199.549;1959.06.11 18:00:00;  -1.3;1007.9;   7.0; 315.0;  89.752;   8.250;   0.340; 93;
76.9832;-165.7142;2; 370.764; 199.352;1959.06.12 00:00:00;  -0.6;1008.8;   4.0; 270.0;  91.793;   8.500;   0.340; 93;
76.9822;-165.6328;2; 370.725; 199.156;1959.06.12 06:00:00;  -0.7;1008.7;   2.0; 292.0;  93.834;   8.750;   0.340; 93;
76.9812;-165.5514;2; 370.686; 198.959;1959.06.12 12:00:00;  -4.7;1008.3;   2.0; 248.0;  95.876;   9.000;   0.340; 93;
76.9802;-165.4700;2; 370.646; 198.762;1959.06.12 18:00:00;  -0.7;1007.1;   3.0; 248.0;  97.917;   9.250;   0.340; 93;
76.9792;-165.3887;2; 370.607; 198.566;1959.06.13 00:00:00;  -0.9;1007.6;   3.0; 315.0;  99.959;   9.500;   0.340; 93;
76.9781;-165.3073;2; 370.568; 198.369;1959.06.13 06:00:00;  -1.1;1009.6;   3.0; 315.0; 102.000;   9.750;   0.340; 93;
76.9770;-165.2260;2; 370.528; 198.172;1959.06.13 12:00:00;  -4.1;1012.9;   0.0;   0.0; 104.042;  10.000;   0.340; 93;
76.9714;-165.2819;2; 370.622; 198.290;1959.06.13 18:00:00;  -4.2;1016.3;   0.0;   0.0; 105.574;  10.250;   0.255;246;
76.9658;-165.3378;2; 370.716; 198.408;1959.06.14 00:00:00;  -0.3;1019.5;   0.0;   0.0; 107.108;  10.500;   0.256;246;
76.9602;-165.3936;2; 370.810; 198.525;1959.06.14 06:00:00;  -2.3;1021.5;   3.0; 360.0; 108.640;  10.750;   0.255;246;
76.9546;-165.4494;2; 370.904; 198.643;1959.06.14 12:00:00;  -6.0;1024.0;   2.0; 360.0; 110.173;  11.000;   0.255;246;
76.9490;-165.5051;2; 370.998; 198.760;1959.06.14 18:00:00;  -5.6;1024.8;   2.0;  68.0; 111.706;  11.250;   0.255;246;
76.9433;-165.5608;2; 371.092; 198.878;1959.06.15 00:00:00;  -3.2;1025.7;   4.0;  68.0; 113.238;  11.500;   0.255;246;
76.9377;-165.6164;2; 371.186; 198.996;1959.06.15 06:00:00;  -3.0;1025.3;   3.0;  90.0; 114.771;  11.750;   0.255;246;
76.9320;-165.6720;2; 371.280; 199.113;1959.06.15 12:00:00;  -5.4;1025.9;   4.0;  90.0; 116.304;  12.000;   0.255;246;
76.9402;-165.6135;2; 371.158; 198.996;1959.06.15 18:00:00;  -2.3;1025.8;   9.0; 112.0; 118.032;  12.250;   0.288; 58;
76.9483;-165.5549;2; 371.036; 198.878;1959.06.16 00:00:00;  -0.5;1026.5;   6.0; 112.0; 119.761;  12.500;   0.288; 58;
76.9565;-165.4963;2; 370.913; 198.760;1959.06.16 06:00:00;   0.3;1026.8;   5.0; 135.0; 121.489;  12.750;   0.288; 58;
76.9646;-165.4376;2; 370.791; 198.642;1959.06.16 12:00:00;  -1.2;1027.9;   3.0; 158.0; 123.217;  13.000;   0.288; 58;
76.9727;-165.3788;2; 370.669; 198.524;1959.06.16 18:00:00;  -0.6;1028.1;   5.0; 180.0; 124.946;  13.250;   0.288; 58;
76.9808;-165.3199;2; 370.547; 198.407;1959.06.17 00:00:00;  -0.2;1029.4;   6.0; 202.0; 126.674;  13.500;   0.288; 59;
76.9889;-165.2610;2; 370.424; 198.289;1959.06.17 06:00:00;  -1.0;1029.3;   3.0; 180.0; 128.403;  13.750;   0.288; 59;
76.9970;-165.2020;2; 370.302; 198.171;1959.06.17 12:00:00;  -2.4;1029.7;   0.0;   0.0; 130.131;  14.000;   0.288; 59;
77.0198;-165.2133;2; 370.069; 198.261;1959.06.17 18:00:00;  -1.4;1029.3;   2.0; 158.0; 132.677;  14.250;   0.424;354;
77.0425;-165.2247;2; 369.836; 198.352;1959.06.18 00:00:00;  -1.1;1029.1;   3.0; 135.0; 135.222;  14.500;   0.424;354;
77.0652;-165.2362;2; 369.603; 198.442;1959.06.18 06:00:00;  -1.5;1028.5;   6.0; 135.0; 137.767;  14.750;   0.424;354;
77.0880;-165.2477;2; 369.369; 198.533;1959.06.18 12:00:00;  -1.3;1028.1;   5.0; 158.0; 140.313;  15.000;   0.424;354;
77.1107;-165.2592;2; 369.136; 198.623;1959.06.18 18:00:00;  -0.3;1026.9;   5.0; 180.0; 142.859;  15.250;   0.424;354;
77.1335;-165.2708;2; 368.903; 198.713;1959.06.19 00:00:00;   0.4;1026.5;   6.0; 180.0; 145.405;  15.500;   0.424;354;
77.1563;-165.2823;2; 368.670; 198.804;1959.06.19 06:00:00;  -0.9;1024.8;   5.0; 180.0; 147.951;  15.750;   0.424;354;
77.1790;-165.2940;2; 368.437; 198.894;1959.06.19 12:00:00;   0.5;1022.0;   6.0; 158.0; 150.497;  16.000;   0.424;354;
77.1975;-165.3108;2; 368.252; 198.985;1959.06.19 18:00:00;   0.0;1018.9;   7.0; 180.0; 152.596;  16.250;   0.350;349;
77.2160;-165.3277;2; 368.066; 199.076;1959.06.20 00:00:00;   0.3;1018.6;   6.0; 225.0; 154.695;  16.500;   0.350;349;
77.2345;-165.3446;2; 367.881; 199.166;1959.06.20 06:00:00;  -0.3;1019.4;   5.0; 225.0; 156.794;  16.750;   0.350;349;
77.2530;-165.3616;2; 367.696; 199.257;1959.06.20 12:00:00;  -1.3;1020.3;   5.0; 202.0; 158.893;  17.000;   0.350;349;
77.2715;-165.3786;2; 367.511; 199.348;1959.06.20 18:00:00;   0.1;1021.2;   4.0; 180.0; 160.992;  17.250;   0.350;349;
77.2900;-165.3957;2; 367.326; 199.438;1959.06.21 00:00:00;   1.3;1023.3;   3.0; 180.0; 163.091;  17.500;   0.350;349;
77.3085;-165.4128;2; 367.141; 199.529;1959.06.21 06:00:00;   0.5;1024.7;   0.0;   0.0; 165.190;  17.750;   0.350;348;
77.3270;-165.4300;2; 366.956; 199.620;1959.06.21 12:00:00;  -0.8;1027.0;   2.0; 180.0; 167.289;  18.000;   0.350;348;
77.3347;-165.4190;2; 366.868; 199.616;1959.06.21 18:00:00;   2.2;1027.4;   0.0;   0.0; 168.191;  18.250;   0.150; 17;
77.3425;-165.4081;2; 366.779; 199.612;1959.06.22 00:00:00;   2.5;1027.7;   0.0;   0.0; 169.093;  18.500;   0.150; 17;
77.3503;-165.3971;2; 366.691; 199.607;1959.06.22 06:00:00;   0.9;1026.7;   3.0; 112.0; 169.996;  18.750;   0.150; 17;
77.3580;-165.3861;2; 366.602; 199.603;1959.06.22 12:00:00;  -0.5;1025.5;   3.0; 112.0; 170.898;  19.000;   0.150; 17;
77.3658;-165.3751;2; 366.514; 199.599;1959.06.22 18:00:00;  -0.5;1023.5;   5.0; 112.0; 171.801;  19.250;   0.150; 17;
77.3735;-165.3641;2; 366.425; 199.595;1959.06.23 00:00:00;   0.9;1022.1;   4.0; 112.0; 172.702;  19.500;   0.150; 17;
77.3812;-165.3530;2; 366.337; 199.591;1959.06.23 06:00:00;   0.4;1020.2;   4.0; 112.0; 173.605;  19.750;   0.150; 17;
77.3890;-165.3420;2; 366.248; 199.587;1959.06.23 12:00:00;  -0.8;1019.3;   5.0; 135.0; 174.508;  20.000;   0.150; 17;
77.4054;-165.3556;2; 366.083; 199.664;1959.06.23 18:00:00;   0.8;1018.1;   6.0; 135.0; 176.359;  20.250;   0.309;350;
77.4218;-165.3693;2; 365.919; 199.740;1959.06.24 00:00:00;   1.3;1016.4;   5.0; 135.0; 178.209;  20.500;   0.308;350;
77.4381;-165.3830;2; 365.754; 199.817;1959.06.24 06:00:00;   0.3;1014.3;   7.0; 158.0; 180.061;  20.750;   0.309;350;
77.4545;-165.3967;2; 365.589; 199.893;1959.06.24 12:00:00;  -0.5;1014.1;   6.0; 180.0; 181.912;  21.000;   0.309;350;
77.4709;-165.4105;2; 365.424; 199.970;1959.06.24 18:00:00;   0.1;1013.3;   4.0; 180.0; 183.762;  21.250;   0.308;350;
77.4873;-165.4243;2; 365.260; 200.047;1959.06.25 00:00:00;  -0.8;1013.8;   4.0; 180.0; 185.613;  21.500;   0.308;350;
77.5036;-165.4381;2; 365.095; 200.123;1959.06.25 06:00:00;  -0.6;1013.0;   4.0; 135.0; 187.464;  21.750;   0.309;350;
77.5200;-165.4520;2; 364.930; 200.200;1959.06.25 12:00:00;  -0.5;1012.9;   2.0; 180.0; 189.314;  22.000;   0.308;350;
77.5266;-165.4435;2; 364.855; 200.199;1959.06.25 18:00:00;  -0.4;1013.5;   3.0; 225.0; 190.079;  22.250;   0.127; 15;
77.5332;-165.4350;2; 364.780; 200.198;1959.06.26 00:00:00;   0.2;1014.2;   3.0; 225.0; 190.843;  22.500;   0.127; 15;
77.5399;-165.4266;2; 364.705; 200.196;1959.06.26 06:00:00;   0.4;1014.9;   0.0;   0.0; 191.608;  22.750;   0.127; 15;
77.5465;-165.4181;2; 364.630; 200.195;1959.06.26 12:00:00;  -0.1;1014.1;   3.0; 158.0; 192.372;  23.000;   0.127; 15;
77.5531;-165.4096;2; 364.555; 200.194;1959.06.26 18:00:00;   0.0;1012.9;   4.0; 180.0; 193.137;  23.250;   0.127; 15;
77.5598;-165.4010;2; 364.480; 200.193;1959.06.27 00:00:00;   0.3;1012.7;   4.0; 180.0; 193.901;  23.500;   0.127; 15;
77.5664;-165.3925;2; 364.405; 200.192;1959.06.27 06:00:00;  -0.1;1013.1;   5.0; 202.0; 194.666;  23.750;   0.127; 15;
77.5730;-165.3840;2; 364.330; 200.191;1959.06.27 12:00:00;  -1.1;1015.3;   5.0; 225.0; 195.429;  24.000;   0.127; 16;
77.5758;-165.3347;2; 364.272; 200.086;1959.06.27 18:00:00;   0.0;1016.7;   5.0; 225.0; 196.648;  24.250;   0.203; 75;
77.5786;-165.2854;2; 364.213; 199.982;1959.06.28 00:00:00;   0.5;1016.8;   9.0; 202.0; 197.868;  24.500;   0.203; 75;
77.5813;-165.2360;2; 364.154; 199.878;1959.06.28 06:00:00;   0.6;1016.2;   8.0; 202.0; 199.088;  24.750;   0.203; 75;
77.5841;-165.1867;2; 364.096; 199.773;1959.06.28 12:00:00;   0.7;1014.1;   9.0; 180.0; 200.306;  25.000;   0.203; 75;
77.5868;-165.1373;2; 364.037; 199.669;1959.06.28 18:00:00;   0.1;1013.2;   8.0; 225.0; 201.526;  25.250;   0.203; 75;
77.5896;-165.0879;2; 363.978; 199.565;1959.06.29 00:00:00;   0.0;1013.8;   7.0; 202.0; 202.746;  25.500;   0.203; 76;
77.5923;-165.0385;2; 363.920; 199.460;1959.06.29 06:00:00;   0.1;1012.0;   5.0; 180.0; 203.965;  25.750;   0.203; 76;
77.5950;-164.9890;2; 363.861; 199.356;1959.06.29 12:00:00;   0.3;1008.8;   6.0; 202.0; 205.185;  26.000;   0.203; 76;
77.6022;-164.9010;2; 363.731; 199.177;1959.06.29 18:00:00;   0.2;1009.5;   5.0; 225.0; 207.434;  26.250;   0.375; 69;
77.6094;-164.8129;2; 363.602; 198.999;1959.06.30 00:00:00;   0.3;1011.4;   3.0; 270.0; 209.685;  26.500;   0.375; 69;
77.6166;-164.7246;2; 363.472; 198.820;1959.06.30 06:00:00;   0.2;1012.6;   4.0; 248.0; 211.936;  26.750;   0.375; 69;
77.6237;-164.6363;2; 363.342; 198.641;1959.06.30 12:00:00;  -0.7;1012.8;   4.0; 225.0; 214.186;  27.000;   0.375; 69;
77.6309;-164.5479;2; 363.212; 198.463;1959.06.30 18:00:00;  -0.3;1012.4;   4.0; 180.0; 216.436;  27.250;   0.375; 69;
77.6379;-164.4594;2; 363.083; 198.284;1959.07.01 00:00:00;  -0.5;1011.8;   5.0; 180.0; 218.686;  27.500;   0.375; 70;
77.6450;-164.3707;2; 362.953; 198.105;1959.07.01 06:00:00;  -1.5;1007.8;   5.0; 180.0; 220.937;  27.750;   0.375; 70;
77.6520;-164.2820;2; 362.823; 197.927;1959.07.01 12:00:00;  -0.3;1003.1;  11.0; 158.0; 223.187;  28.000;   0.375; 70;
77.6714;-164.3243;2; 362.646; 198.079;1959.07.01 18:00:00;  -0.2; 998.6;  12.0; 135.0; 225.567;  28.250;   0.397;335;
77.6908;-164.3667;2; 362.469; 198.231;1959.07.02 00:00:00;   0.0; 994.8;  10.0; 112.0; 227.946;  28.500;   0.396;335;
77.7102;-164.4092;2; 362.292; 198.383;1959.07.02 06:00:00;   0.4; 991.7;  10.0;  90.0; 230.326;  28.750;   0.397;335;
77.7296;-164.4519;2; 362.115; 198.535;1959.07.02 12:00:00;   0.3; 987.8;   9.0;  68.0; 232.705;  29.000;   0.396;335;
77.7489;-164.4947;2; 361.938; 198.687;1959.07.02 18:00:00;   0.1; 989.4;   4.0; 135.0; 235.085;  29.250;   0.397;335;
77.7683;-164.5377;2; 361.761; 198.839;1959.07.03 00:00:00;   0.3; 991.5;   3.0;  90.0; 237.464;  29.500;   0.396;335;
77.7877;-164.5808;2; 361.584; 198.992;1959.07.03 06:00:00;  -0.4; 990.6;   2.0; 112.0; 239.844;  29.750;   0.397;335;
77.8070;-164.6240;2; 361.407; 199.144;1959.07.03 12:00:00;  -0.7; 988.5;   5.0;  90.0; 242.223;  30.000;   0.397;335;
77.8260;-164.6646;2; 361.232; 199.289;1959.07.03 18:00:00;  -0.5; 986.1;   2.0;  90.0; 244.542;  30.250;   0.387;336;
77.8450;-164.7052;2; 361.056; 199.434;1959.07.04 00:00:00;  -0.1; 984.6;   0.0;   0.0; 246.862;  30.500;   0.387;336;
77.8641;-164.7460;2; 360.881; 199.579;1959.07.04 06:00:00;  -0.4; 983.2;   4.0; 270.0; 249.182;  30.750;   0.387;336;
77.8830;-164.7870;2; 360.706; 199.723;1959.07.04 12:00:00;  -1.1; 984.1;   6.0; 225.0; 251.500;  31.000;   0.386;336;
77.9020;-164.8280;2; 360.530; 199.868;1959.07.04 18:00:00;  -1.1; 986.4;   4.0; 180.0; 253.820;  31.250;   0.387;336;
77.9210;-164.8692;2; 360.355; 200.013;1959.07.05 00:00:00;  -0.3; 989.1;   4.0; 158.0; 256.140;  31.500;   0.387;336;
77.9400;-164.9105;2; 360.180; 200.158;1959.07.05 06:00:00;  -0.9; 990.8;   4.0; 112.0; 258.458;  31.750;   0.386;336;
77.9590;-164.9520;2; 360.004; 200.303;1959.07.05 12:00:00;  -1.6; 992.5;   5.0;  68.0; 260.778;  32.000;   0.387;335;
77.9630;-164.9651;2; 359.970; 200.343;1959.07.05 18:00:00;  -1.9; 993.9;   2.0;  68.0; 261.316;  32.250;   0.090;326;
77.9670;-164.9782;2; 359.936; 200.383;1959.07.06 00:00:00;  -0.7; 994.7;   5.0;  90.0; 261.855;  32.500;   0.090;326;
77.9710;-164.9913;2; 359.901; 200.423;1959.07.06 06:00:00;  -0.2; 995.6;   2.0;  68.0; 262.394;  32.750;   0.090;326;
77.9750;-165.0044;2; 359.867; 200.464;1959.07.06 12:00:00;  -0.5; 995.5;   4.0;  90.0; 262.934;  33.000;   0.090;326;
77.9790;-165.0175;2; 359.832; 200.504;1959.07.06 18:00:00;  -1.0; 996.3;   4.0;  90.0; 263.471;  33.250;   0.090;326;
77.9830;-165.0307;2; 359.798; 200.544;1959.07.07 00:00:00;  -0.5; 993.8;  12.0;  45.0; 264.010;  33.500;   0.090;326;
77.9870;-165.0438;2; 359.764; 200.584;1959.07.07 06:00:00;  -0.4; 993.0;   7.0;  90.0; 264.549;  33.750;   0.090;326;
77.9910;-165.0570;2; 359.729; 200.624;1959.07.07 12:00:00;  -1.5; 993.8;   8.0; 135.0; 265.088;  34.000;   0.090;326;
78.0078;-165.1191;2; 359.588; 200.807;1959.07.07 18:00:00;  -1.2; 997.0;  10.0; 158.0; 267.444;  34.250;   0.393;322;
78.0246;-165.1814;2; 359.448; 200.990;1959.07.08 00:00:00;  -0.9;1000.0;   6.0; 135.0; 269.801;  34.500;   0.393;322;
78.0414;-165.2439;2; 359.307; 201.174;1959.07.08 06:00:00;  -0.7;1000.7;   4.0; 135.0; 272.158;  34.750;   0.393;322;
78.0581;-165.3066;2; 359.166; 201.357;1959.07.08 12:00:00;  -1.5;1001.1;   3.0; 112.0; 274.514;  35.000;   0.393;322;
78.0749;-165.3694;2; 359.025; 201.540;1959.07.08 18:00:00;   0.1;1000.7;   0.0;   0.0; 276.871;  35.250;   0.393;322;
78.0916;-165.4324;2; 358.885; 201.723;1959.07.09 00:00:00;  -1.4;1002.3;   2.0; 202.0; 279.228;  35.500;   0.393;322;
78.1083;-165.4956;2; 358.744; 201.907;1959.07.09 06:00:00;  -0.7;1003.2;   3.0; 158.0; 281.584;  35.750;   0.393;322;
78.1250;-165.5590;2; 358.603; 202.090;1959.07.09 12:00:00;  -1.5;1003.8;   4.0; 158.0; 283.940;  36.000;   0.393;322;
78.1296;-165.6635;2; 358.612; 202.329;1959.07.09 18:00:00;  -2.2;1002.1;   8.0;  90.0; 286.386;  36.250;   0.408;282;
78.1342;-165.7680;2; 358.622; 202.569;1959.07.10 00:00:00;  -1.3; 999.4;  13.0;  68.0; 288.831;  36.500;   0.408;282;
78.1388;-165.8727;2; 358.631; 202.808;1959.07.10 06:00:00;  -0.9; 996.0;  14.0;  45.0; 291.276;  36.750;   0.407;282;
78.1433;-165.9774;2; 358.640; 203.048;1959.07.10 12:00:00;  -0.1; 994.1;  11.0;  22.0; 293.720;  37.000;   0.407;282;
78.1478;-166.0822;2; 358.649; 203.287;1959.07.10 18:00:00;   0.1; 993.9;   9.0;  22.0; 296.165;  37.250;   0.408;282;
78.1522;-166.1870;2; 358.659; 203.527;1959.07.11 00:00:00;   0.0; 996.2;   6.0;  22.0; 298.611;  37.500;   0.408;282;
78.1566;-166.2920;2; 358.668; 203.766;1959.07.11 06:00:00;  -0.2; 998.0;   4.0; 360.0; 301.056;  37.750;   0.408;282;
78.1610;-166.3970;2; 358.677; 204.006;1959.07.11 12:00:00;  -1.2; 999.4;   4.0; 360.0; 303.500;  38.000;   0.407;281;
78.1526;-166.5423;2; 358.842; 204.301;1959.07.11 18:00:00;  -1.2; 999.1;   8.0; 360.0; 306.945;  38.250;   0.574;254;
78.1442;-166.6875;2; 359.007; 204.595;1959.07.12 00:00:00;  -0.2; 999.8;   9.0;  22.0; 310.390;  38.500;   0.574;254;
78.1357;-166.8324;2; 359.171; 204.890;1959.07.12 06:00:00;   0.0;1002.1;   9.0;  22.0; 313.835;  38.750;   0.574;254;
78.1271;-166.9772;2; 359.336; 205.185;1959.07.12 12:00:00;  -0.3;1004.1;   9.0;  22.0; 317.280;  39.000;   0.574;254;
78.1184;-167.1217;2; 359.501; 205.480;1959.07.12 18:00:00;  -0.8;1006.3;   8.0;  68.0; 320.725;  39.250;   0.574;254;
78.1097;-167.2660;2; 359.665; 205.775;1959.07.13 00:00:00;   0.4;1008.7;   7.0;  45.0; 324.170;  39.500;   0.574;254;
78.1009;-167.4101;2; 359.830; 206.070;1959.07.13 06:00:00;   0.2;1010.2;   6.0;  45.0; 327.615;  39.750;   0.574;253;
78.0920;-167.5540;2; 359.995; 206.364;1959.07.13 12:00:00;  -0.3;1011.1;   4.0;  45.0; 331.060;  40.000;   0.574;253;
78.0904;-167.5905;2; 360.030; 206.441;1959.07.13 18:00:00;  -0.6;1012.1;   3.0;  45.0; 331.917;  40.250;   0.143;258;
78.0888;-167.6270;2; 360.064; 206.517;1959.07.14 00:00:00;  -0.2;1012.4;   3.0;  90.0; 332.774;  40.500;   0.143;258;
78.0872;-167.6636;2; 360.099; 206.594;1959.07.14 06:00:00;  -0.3;1012.4;   4.0;  45.0; 333.632;  40.750;   0.143;258;
78.0855;-167.7001;2; 360.134; 206.670;1959.07.14 12:00:00;   0.0;1012.2;   2.0;  68.0; 334.488;  41.000;   0.143;258;
78.0839;-167.7366;2; 360.169; 206.747;1959.07.14 18:00:00;   0.5;1012.1;   0.0;   0.0; 335.346;  41.250;   0.143;258;
78.0823;-167.7731;2; 360.204; 206.823;1959.07.15 00:00:00;   1.7;1013.0;   0.0;   0.0; 336.203;  41.500;   0.143;258;
78.0806;-167.8095;2; 360.238; 206.900;1959.07.15 06:00:00;   0.0;1013.3;   4.0;  22.0; 337.060;  41.750;   0.143;258;
78.0790;-167.8460;2; 360.273; 206.976;1959.07.15 12:00:00;  -0.1;1013.3;   6.0; 338.0; 337.917;  42.000;   0.143;258;
78.0794;-167.8589;2; 360.275; 207.006;1959.07.15 18:00:00;   0.0;1012.4;   5.0; 360.0; 338.216;  42.250;   0.050;278;
78.0798;-167.8717;2; 360.277; 207.035;1959.07.16 00:00:00;   0.1;1011.2;   7.0; 360.0; 338.514;  42.500;   0.050;278;
78.0801;-167.8846;2; 360.279; 207.064;1959.07.16 06:00:00;   0.3;1008.1;  10.0; 360.0; 338.813;  42.750;   0.050;278;
78.0805;-167.8975;2; 360.282; 207.093;1959.07.16 12:00:00;   0.0;1005.7;   8.0; 360.0; 339.112;  43.000;   0.050;278;
78.0809;-167.9104;2; 360.284; 207.122;1959.07.16 18:00:00;   0.0;1003.3;   6.0; 360.0; 339.410;  43.250;   0.050;278;
78.0813;-167.9232;2; 360.286; 207.152;1959.07.17 00:00:00;   0.5;1003.5;   0.0;   0.0; 339.709;  43.500;   0.050;278;
78.0816;-167.9361;2; 360.288; 207.181;1959.07.17 06:00:00;   0.0;1007.3;   8.0; 180.0; 340.008;  43.750;   0.050;278;
78.0820;-167.9490;2; 360.290; 207.210;1959.07.17 12:00:00;  -0.1;1014.1;   8.0; 158.0; 340.306;  44.000;   0.050;278;
78.0788;-168.0928;2; 360.392; 207.519;1959.07.17 18:00:00;  -2.3;1018.0;   6.0; 112.0; 343.628;  44.250;   0.554;264;
78.0754;-168.2365;2; 360.493; 207.829;1959.07.18 00:00:00;   0.2;1018.7;   5.0;  45.0; 346.950;  44.500;   0.554;264;
78.0721;-168.3801;2; 360.595; 208.138;1959.07.18 06:00:00;   0.8;1019.0;   5.0;  68.0; 350.272;  44.750;   0.554;263;
78.0686;-168.5237;2; 360.697; 208.448;1959.07.18 12:00:00;   0.9;1019.3;   6.0;  90.0; 353.593;  45.000;   0.554;263;
78.0651;-168.6671;2; 360.799; 208.757;1959.07.18 18:00:00;   0.8;1019.7;   6.0;  68.0; 356.915;  45.250;   0.554;263;
78.0614;-168.8105;2; 360.900; 209.066;1959.07.19 00:00:00;   1.2;1020.2;   5.0;  90.0; 360.237;  45.500;   0.554;263;
78.0578;-168.9538;2; 361.002; 209.376;1959.07.19 06:00:00;   0.7;1019.8;   6.0;  68.0; 363.559;  45.750;   0.554;263;
78.0540;-169.0970;2; 361.104; 209.685;1959.07.19 12:00:00;   0.5;1020.3;   6.0;  68.0; 366.880;  46.000;   0.554;263;
78.0602;-169.1686;2; 361.068; 209.856;1959.07.19 18:00:00;   0.6;1020.2;   6.0;  90.0; 368.666;  46.250;   0.298;293;
78.0664;-169.2403;2; 361.032; 210.028;1959.07.20 00:00:00;   1.1;1020.8;   5.0; 112.0; 370.452;  46.500;   0.298;293;
78.0725;-169.3121;2; 360.996; 210.199;1959.07.20 06:00:00;  -0.5;1020.3;   4.0; 135.0; 372.238;  46.750;   0.298;293;
78.0787;-169.3839;2; 360.961; 210.371;1959.07.20 12:00:00;  -0.9;1020.0;   3.0; 158.0; 374.024;  47.000;   0.298;292;
78.0848;-169.4558;2; 360.925; 210.542;1959.07.20 18:00:00;  -0.4;1018.3;   5.0; 180.0; 375.810;  47.250;   0.298;292;
78.0909;-169.5278;2; 360.889; 210.713;1959.07.21 00:00:00;   1.0;1018.3;   4.0; 180.0; 377.596;  47.500;   0.298;292;
78.0969;-169.5999;2; 360.853; 210.885;1959.07.21 06:00:00;   0.3;1017.5;   5.0; 202.0; 379.382;  47.750;   0.298;292;
78.1030;-169.6720;2; 360.817; 211.056;1959.07.21 12:00:00;   0.9;1017.0;   6.0; 180.0; 381.168;  48.000;   0.298;292;
78.1121;-169.6542;2; 360.712; 211.035;1959.07.21 18:00:00;   0.2;1015.7;   4.0; 180.0; 382.262;  48.250;   0.182; 22;
78.1213;-169.6364;2; 360.607; 211.013;1959.07.22 00:00:00;   0.8;1014.2;   5.0; 158.0; 383.356;  48.500;   0.182; 22;
78.1304;-169.6186;2; 360.502; 210.992;1959.07.22 06:00:00;   0.3;1010.9;   6.0; 158.0; 384.449;  48.750;   0.182; 22;
78.1395;-169.6007;2; 360.397; 210.970;1959.07.22 12:00:00;  -0.1;1007.9;   8.0; 180.0; 385.543;  49.000;   0.182; 22;
78.1486;-169.5828;2; 360.292; 210.949;1959.07.22 18:00:00;   0.2;1004.6;   7.0; 135.0; 386.637;  49.250;   0.182; 22;
78.1578;-169.5649;2; 360.187; 210.928;1959.07.23 00:00:00;   0.5;1003.6;   5.0; 112.0; 387.731;  49.500;   0.182; 22;
78.1669;-169.5470;2; 360.082; 210.906;1959.07.23 06:00:00;   0.1;1004.4;   3.0;  22.0; 388.825;  49.750;   0.182; 22;
78.1760;-169.5290;2; 359.977; 210.885;1959.07.23 12:00:00;   0.1;1006.7;   2.0; 338.0; 389.919;  50.000;   0.182; 22;